Russell, KS

6:43 PM CST on December 10, 2016 (GMT -0600)
Russell Municipal

Weather History for KRSL - December, 2012

Change the Weather History Date:

Wednesday, December 12, 2012

  Actual Average Record
Temperature  
Mean Temperature 40 °F -  
Max Temperature 55 °F 45 °F 62 °F (1993)
Min Temperature 26 °F 22 °F -14 °F (1961)
Degree Days  
Heating Degree Days 24    
Moisture  
Dew Point 14 °F    
Average Humidity 38    
Maximum Humidity 56    
Minimum Humidity 20    
Precipitation  
Precipitation 0.00 in - - ()
Sea Level Pressure  
Sea Level Pressure 29.99 in    
Wind  
Wind Speed 17 mph (South)    
Max Wind Speed 29 mph    
Max Gust Speed 37 mph    
Visibility 10 miles    
Events      
Averages and records for this station are not official NWS values.
T = Trace of Precipitation, MM = Missing Value Source: NWS Daily Summary

Daily Weather History Graph

Daily Weather History Graph

Search for Another Location

Airport or City:

Trip Planner

Search our weather history database for the weather conditions in past years. The results will help you decide how hot, cold, wet, or windy it might be!

Date:

Astronomy

Dec. 12, 2012 Rise Set
Actual Time 7:44 AM CST 5:13 PM CST
Civil Twilight 7:14 AM CST 5:43 PM CST
Nautical Twilight 6:41 AM CST 6:16 PM CST
Astronomical Twilight 6:09 AM CST 6:49 PM CST
Moon 6:51 AM CST (12/12) 4:52 PM CST (12/12)
Length of Visible Light 10h 28m
Length of Day
9h 28m
Waning Crescent, 1% of the Moon is Illuminated
Dec 12
Waning Crescent
Dec 13
New
Dec 19
First Quarter
Dec 28
Full
Jan 4
Last Quarter

Hourly Weather History & Observations

Time (CST) Temp. Windchill Dew Point Humidity Pressure Visibility Wind Dir Wind Speed Gust Speed Precip Events Conditions
12:53 AM 28.9 °F 18.2 °F 12.0 °F 49% 30.04 in 10.0 mi South 13.8 mph - N/A   Clear
1:53 AM 28.9 °F 18.2 °F 12.0 °F 49% 30.02 in 10.0 mi South 13.8 mph - N/A   Clear
2:53 AM 27.0 °F 18.0 °F 10.9 °F 51% 30.03 in 10.0 mi South 9.2 mph - N/A   Clear
3:53 AM 26.1 °F 16.2 °F 10.9 °F 53% 30.02 in 10.0 mi SSW 10.4 mph - N/A   Clear
4:53 AM 26.1 °F 15.0 °F 12.0 °F 55% 30.01 in 10.0 mi South 12.7 mph - N/A   Clear
5:53 AM 27.0 °F 14.7 °F 12.0 °F 53% 30.01 in 10.0 mi SSW 16.1 mph - N/A   Clear
6:53 AM 27.0 °F 14.7 °F 12.0 °F 53% 30.04 in 10.0 mi SSW 16.1 mph - N/A   Clear
7:53 AM 28.0 °F 16.1 °F 14.0 °F 56% 30.06 in 10.0 mi SSW 16.1 mph - N/A   Clear
9:53 AM 37.9 °F 28.2 °F 15.1 °F 39% 30.04 in 10.0 mi South 18.4 mph - N/A   Clear
10:53 AM 45.0 °F 36.0 °F 15.1 °F 30% 30.02 in 10.0 mi SSW 25.3 mph 29.9 mph N/A   Clear
11:53 AM 48.9 °F - 14.0 °F 25% 29.99 in 10.0 mi South 28.8 mph 36.8 mph N/A   Clear
1:53 PM 55.0 °F - 15.1 °F 21% 29.94 in 10.0 mi South 25.3 mph 33.4 mph N/A   Clear
2:53 PM 55.0 °F - 14.0 °F 20% 29.94 in 10.0 mi South 27.6 mph 35.7 mph N/A   Clear
3:53 PM 54.0 °F - 14.0 °F 21% 29.94 in 10.0 mi South 23.0 mph 31.1 mph N/A   Clear
4:53 PM 51.1 °F - 14.0 °F 23% 29.93 in 10.0 mi South 20.7 mph - N/A   Clear
5:53 PM 46.9 °F - 14.0 °F 27% 29.94 in 10.0 mi South 19.6 mph - N/A   Clear
6:53 PM 45.0 °F 37.9 °F 15.1 °F 30% 29.96 in 10.0 mi South 16.1 mph - N/A   Clear
7:53 PM 43.0 °F 34.2 °F 15.1 °F 32% 29.96 in 10.0 mi South 20.7 mph - N/A   Clear
8:53 PM 42.1 °F 33.1 °F 15.1 °F 34% 29.97 in 10.0 mi South 20.7 mph 27.6 mph N/A   Clear
9:53 PM 42.1 °F 33.1 °F 16.0 °F 35% 29.96 in 10.0 mi South 20.7 mph - N/A   Clear
10:53 PM 42.1 °F 33.1 °F 17.1 °F 37% 29.95 in 10.0 mi South 20.7 mph 27.6 mph N/A   Clear
11:53 PM 42.1 °F 32.6 °F 18.0 °F 38% 29.94 in 10.0 mi South 23.0 mph - N/A   Clear